Powrót do katalogu

COSMOS 2251 DEB

AktywnyLEO
NORAD 33928·DEBRIS·🇷🇺 Russia

Wystrzelony Jun 16, 1993 z Plesetsk Cosmodrome

Loading…

Następne Przeloty (najbliższe 24 godziny)

TLE

ŚwieżeSource: Space-Track

Epoka: Sep 14, 2026, 08:35 UTC

1 33928U 93036EH  26257.35792528  .00000456  00000-0  12813-3 0  9992
2 33928  73.9224 253.3931 0058974 129.3793 231.2611 14.47898519926332

Śledź COSMOS 2251 DEB w czasie rzeczywistym z AllMySat

Download on the App Store